ATLAS 5 CENTAUR DEB, 44010

Orbit data source: Space-Track

ATLAS 5 CENTAUR DEB, 44010 is space debris in HEO originally from a launch on Wed, 17 Sep 2014 UTC launched from the Air Force Eastern Test Range (AFETR). Debris objects in space refer to the collection of defunct objects orbiting the Earth. Examples of debris include non-operational satellites, rocket bodies, and fragments generated from explosions, collisions, or faulty payload assembly.

Loading next visibility...
Identifier
44010, 2014-055BR
Orbit
HEO
Country
Flag of USUS
Related business
Flag of USUnited Launch Alliance/Lockheed Martin (US)
Manufacturer
Unknown
Mission
Spacecraft
Bus & Motor
Unknown
Mass
Unknown
Launch date (UTC)
2014-09-17 (11 years ago)
Launch vehicle
Unknown
Launch site
Air Force Eastern Test Range (AFETR)
Object type
Payload
Rocket body
Debris
Shape & HBR
Unknown shape, 1.1 m
Radar Cross Section
Small (<0.1 m²)

Expand to show TLE details & history
Last TLE update: 2 weeks ago

TLE from 2 weeks ago
0 ATLAS 5 CENTAUR DEB
1 44010U 14055BR  25271.61001051  .00000002  00000-0  00000-0 0  9997
2 44010  19.3656 183.1200 4786815  94.0453 319.8058  1.82356058 46596
Epoch: 2025-09-28T14:38Z
TLE epoch observation values (Epoch: 2025-09-28T14:38:24.908Z)
Latitude
0.00001°
Longitude
-44.10445°
Altitude
16,217.775 km
Speed
4.604 km/s
True Right ascension
12h 12m 29s
True Declination
0° 00' 00"
Sunlit
Object was in daylight at epoch
Visualization orbit readout
Latitude
Unknown
Longitude
Unknown
Altitude
Unknown
Speed
Unknown
Apparent Right ascension
Unknown
Apparent Declination
Unknown
Sunlit
N/A
Visualization observer readout
Local Sidereal Time
12:40:49
Azimuth
Unknown
Elevation
Unknown
Doppler factor
Unknown
Orbital elements
Apogee altitude
35,471.602 km
Perigee altitude
8,376.253 km
Semi-major axis
28,302.064 km
Eccentricity
0.47868
Inclination
19.3656°
RAAN
183.12°
Arg. of periapsis
94.0453°
True anomaly
265.89956°
Mean anomaly
319.8058°
Eccentric anomaly
294.9361°
Mean motion
0.45584 °/min
Orbital period
789.74 mins
BSTAR
0
Loading maneuver chart data...
Computing Atmospheric mass density...

Documentation

Showing up to 5 results
|